Weather History for LIPZ - May, 2013

Change the Weather History Date:

Saturday, May 25, 2013

  Actual Average Record
Temperature  
Mean Temperature 52 °F -  
Max Temperature 57 °F 76 °F 86 °F (2007)
Min Temperature 48 °F 60 °F 48 °F (2004)
Degree Days  
Heating Degree Days 12    
Growing Degree Days 2 (Base 50)    
Moisture  
Dew Point 45 °F    
Average Humidity 76    
Maximum Humidity 94    
Minimum Humidity 59    
Precipitation  
Precipitation 0.00 in 0.10 in - ()
Sea Level Pressure  
Sea Level Pressure 29.73 in    
Wind  
Wind Speed 6 mph ()    
Max Wind Speed 14 mph    
Max Gust Speed -    
Visibility 6.2 miles    
Events Rain    
Averages and records for this station are not official NWS values.
T = Trace of Precipitation, MM = Missing Value Source: Averaged Metar Reports

Daily Weather History Graph

Daily Weather History Graph

Search for Another Location

Airport or City:

Trip Planner

Search our weather history database for the weather conditions in past years. The results will help you decide how hot, cold, wet, or windy it might be!

Date:

Astronomy

May. 25, 2013 Rise Set
Actual Time 5:30 AM CEST 8:45 PM CEST
Civil Twilight 4:54 AM CEST 9:21 PM CEST
Nautical Twilight 4:07 AM CEST 10:08 PM CEST
Astronomical Twilight 3:09 AM CEST 11:07 PM CEST
Moon 9:14 PM CEST (5/25) 5:42 AM CEST (5/25)
Length of Visible Light 16h 27m
Length of Day
15h 15m
Full, 100% of the Moon is Illuminated
May 25
Full
May 31
Last Quarter
Jun 8
New
Jun 16
First Quarter
Jun 23
Full

Hourly Weather History & Observations

Time (CEST) Temp. Dew Point Humidity Pressure Visibility Wind Dir Wind Speed Gust Speed Precip Events Conditions
12:20 AM 48.2 °F 46.4 °F 93% 29.71 in 6.2 mi Variable 2.3 mph - N/A   Mostly Cloudy
12:50 AM 50.0 °F 48.2 °F 94% 29.71 in 6.2 mi Variable 2.3 mph - N/A   Mostly Cloudy
1:20 AM 50.0 °F 44.6 °F 82% 29.71 in 6.2 mi NW 4.6 mph - N/A   Mostly Cloudy
1:50 AM 50.0 °F 44.6 °F 82% 29.74 in 6.2 mi WNW 5.8 mph - N/A   Mostly Cloudy
2:20 AM 50.0 °F 46.4 °F 87% 29.74 in 6.2 mi WNW 6.9 mph - N/A   Mostly Cloudy
2:50 AM 50.0 °F 44.6 °F 82% 29.74 in 6.2 mi NW 5.8 mph - N/A   Mostly Cloudy
3:20 AM 50.0 °F 46.4 °F 87% 29.71 in 6.2 mi NW 9.2 mph - N/A Rain Light Rain
3:50 AM 48.2 °F 46.4 °F 93% 29.74 in 6.2 mi NNW 9.2 mph - N/A Rain Light Rain
4:20 AM 48.2 °F 44.6 °F 87% 29.71 in 6.2 mi NNW 10.4 mph - N/A Rain Light Rain
4:50 AM 48.2 °F 46.4 °F 93% 29.71 in 6.2 mi NNW 8.1 mph - N/A Rain Light Rain
5:20 AM 48.2 °F 44.6 °F 87% 29.71 in 6.2 mi North 9.2 mph - N/A Rain Light Rain
5:50 AM 48.2 °F 44.6 °F 87% 29.71 in 6.2 mi NNW 8.1 mph - N/A   Mostly Cloudy
6:20 AM 48.2 °F 44.6 °F 87% 29.71 in 6.2 mi NNW 4.6 mph - N/A   Scattered Clouds
6:50 AM 48.2 °F 44.6 °F 87% 29.74 in 6.2 mi NW 4.6 mph - N/A   Scattered Clouds
7:20 AM 50.0 °F 44.6 °F 82% 29.74 in 6.2 mi NW 6.9 mph - N/A   Scattered Clouds
7:50 AM 50.0 °F 44.6 °F 82% 29.74 in 6.2 mi NW 5.8 mph - N/A   Scattered Clouds
8:20 AM 50.0 °F 44.6 °F 82% 29.74 in 6.2 mi NNW 8.1 mph - N/A   Mostly Cloudy
8:50 AM 51.8 °F 46.4 °F 82% 29.74 in 6.2 mi NNW 8.1 mph - N/A   Mostly Cloudy
9:20 AM 51.8 °F 44.6 °F 76% 29.74 in 6.2 mi North 9.2 mph - N/A   Mostly Cloudy
9:50 AM 53.6 °F 44.6 °F 72% 29.74 in 6.2 mi North 11.5 mph - N/A   Mostly Cloudy
10:20 AM 53.6 °F 42.8 °F 67% 29.74 in 6.2 mi North 11.5 mph - N/A   Mostly Cloudy
10:50 AM 53.6 °F 44.6 °F 72% 29.74 in 6.2 mi North 12.7 mph - N/A   Scattered Clouds
11:20 AM 53.6 °F 44.6 °F 72% 29.74 in 6.2 mi North 11.5 mph - N/A   Scattered Clouds
11:50 AM 55.4 °F 46.4 °F 72% 29.74 in 6.2 mi NNE 13.8 mph - N/A   Scattered Clouds
12:20 PM 55.4 °F 44.6 °F 67% 29.74 in 6.2 mi NNE 11.5 mph - N/A   Scattered Clouds
12:50 PM 57.2 °F 42.8 °F 59% 29.74 in 6.2 mi NNE 11.5 mph - N/A   Scattered Clouds
1:20 PM 57.2 °F 42.8 °F 59% 29.74 in 6.2 mi NNE 11.5 mph - N/A   Mostly Cloudy
1:50 PM 57.2 °F 44.6 °F 63% 29.74 in 6.2 mi ENE 10.4 mph - N/A   Mostly Cloudy
2:20 PM 57.2 °F 44.6 °F 63% 29.74 in 6.2 mi East 8.1 mph - N/A   Mostly Cloudy
2:50 PM 57.2 °F 44.6 °F 63% 29.74 in 6.2 mi East 4.6 mph - N/A   Mostly Cloudy
3:20 PM 53.6 °F 46.4 °F 77% 29.74 in 5.6 mi SSE 9.2 mph - N/A   Mostly Cloudy
3:50 PM 53.6 °F 46.4 °F 77% 29.74 in 5.6 mi Variable 3.5 mph - N/A Rain Light Rain Showers
4:20 PM 55.4 °F 46.4 °F 72% 29.74 in 6.2 mi Variable 2.3 mph - N/A   Mostly Cloudy
4:50 PM 55.4 °F 46.4 °F 72% 29.74 in 6.2 mi SSE 6.9 mph - N/A   Mostly Cloudy
5:20 PM 55.4 °F 46.4 °F 72% 29.71 in 6.2 mi SE 9.2 mph - N/A   Partly Cloudy
5:50 PM 55.4 °F 46.4 °F 72% 29.71 in 6.2 mi SE 5.8 mph - N/A   Scattered Clouds
6:20 PM 55.4 °F 44.6 °F 67% 29.71 in 6.2 mi SE 5.8 mph - N/A   Mostly Cloudy
6:50 PM 55.4 °F 42.8 °F 63% 29.71 in 6.2 mi Variable 3.5 mph - N/A   Mostly Cloudy
7:20 PM 55.4 °F 44.6 °F 67% 29.71 in 6.2 mi Variable 3.5 mph - N/A   Mostly Cloudy
7:50 PM 55.4 °F 44.6 °F 67% 29.71 in 6.2 mi East 4.6 mph - N/A   Mostly Cloudy
8:20 PM 55.4 °F 42.8 °F 63% 29.71 in 6.2 mi Variable 1.2 mph - N/A   Mostly Cloudy
8:50 PM 55.4 °F 44.6 °F 67% 29.71 in 6.2 mi NNE 5.8 mph - N/A   Scattered Clouds
9:20 PM 55.4 °F 42.8 °F 63% 29.71 in 6.2 mi NNE 6.9 mph - N/A   Mostly Cloudy
9:50 PM 53.6 °F 46.4 °F 77% 29.71 in 6.2 mi North 6.9 mph - N/A   Mostly Cloudy
10:20 PM 51.8 °F 44.6 °F 76% 29.74 in 6.2 mi ENE 13.8 mph - N/A   Mostly Cloudy
10:50 PM 51.8 °F 46.4 °F 82% 29.74 in 5.6 mi ENE 8.1 mph - N/A Rain Light Rain Showers
11:20 PM 51.8 °F 46.4 °F 82% 29.74 in 6.2 mi ENE 11.5 mph - N/A Rain Rain
11:50 PM 50.0 °F 46.4 °F 87% 29.74 in 6.2 mi NNE 6.9 mph - N/A Rain Rain